This demonstration page uses our WeatherBlox Daily Observations layout. Learn more.

Left ArrowRight Arrow

39.51506, -84.39828

Hourly Observations for February 23, 2020

Temp ( °F °C ) Dew Point ( °F °C ) Humidity (%) Winds ( mph kmh ) Pressure ( in mb ) Visibility ( mi km ) Precip ( " mm )
12:15 am 00:15 Clear 26 -3.2 20 -6.6 78 78 Calm 30.28 1026 10 16.0934 0 0
12:35 am 00:35 Clear 26 -3.1 21 -6.2 79 79 Calm 30.28 1026 10 16.0934 0 0
12:55 am 00:55 Clear 24 -4.3 20 -6.4 85 85 Calm 30.29 1026 10 16.0934 0 0
1:15 am 01:15 Clear 24 -4.2 19 -7.2 80 80 Calm 30.28 1025 10 16.0934 0 0
1:35 am 01:35 Clear 24 -4.2 19 -7.1 80 80 Calm 30.28 1025 10 16.0934 0 0
1:55 am 01:55 Clear 23 -4.9 19 -7.1 85 85 Calm 30.27 1025 10 16.0934 0 0
2:15 am 02:15 Clear 23 -5 20 -6.8 87 87 Calm 30.27 1025 10 16.0934 0 0
2:35 am 02:35 Clear 23 -5.2 20 -6.9 88 88 Calm 30.27 1025 10 16.0934 0 0
2:55 am 02:55 Clear 23 -5.2 20 -6.7 89 89 Calm 30.26 1025 10 16.0934 0 0
3:15 am 03:15 Clear 23 -5.1 20 -6.7 89 89 Calm 30.26 1025 10 16.0934 0 0
3:35 am 03:35 Clear 21 -6.2 19 -7.4 91 91 Calm 30.25 1024 10 16.0934 0 0
3:55 am 03:55 Clear 22 -5.7 19 -7 91 91 Calm 30.25 1024 10 16.0934 0 0
4:15 am 04:15 Clear 22 -5.8 19 -7.4 89 89 Calm 30.25 1024 10 16.0934 0 0
4:35 am 04:35 Clear 22 -5.7 18 -7.6 87 87 Calm 30.25 1024 10 16.0934 0 0
4:55 am 04:55 Clear 22 -5.5 19 -7.5 86 86 Calm 30.24 1024 10 16.0934 0 0
5:15 am 05:15 Clear 20 -6.8 17 -8.1 91 91 Calm 30.25 1025 10 16.0934 0 0
5:35 am 05:35 Clear 21 -6.2 18 -7.7 89 89 Calm 30.24 1024 10 16.0934 0 0
5:55 am 05:55 Clear 20 -6.4 18 -7.8 90 90 Calm 30.24 1024 10 16.0934 0 0
6:15 am 06:15 Mostly Cloudy 22 -5.6 18 -7.6 86 86 Calm 30.24 1024 10 16.0934 0 0
6:35 am 06:35 Partly Cloudy 22 -5.5 19 -7.4 87 87 Calm 30.24 1024 10 16.0934 0 0
6:55 am 06:55 Cloudy 23 -5.2 19 -7.5 84 84 Calm 30.23 1024 10 16.0934 0 0
7:15 am 07:15 Mostly Cloudy 24 -4.5 20 -6.8 84 84 Calm 30.23 1024 10 16.0934 0 0
7:35 am 07:35 Partly Cloudy 25 -3.8 20 -6.5 82 82 Calm 30.23 1024 10 16.0934 0 0
7:55 am 07:55 Sunny 25 -4 21 -6.2 85 85 Calm 30.23 1024 10 16.0934 0 0
8:15 am 08:15 Mostly Cloudy 30 -1.3 24 -4.6 79 79 Calm 30.22 1023 10 16.0934 0 0
8:35 am 08:35 Cloudy 32 0 24 -4.3 73 73 Calm 30.22 1023 10 16.0934 0 0
8:55 am 08:55 Cloudy 33 0.5 26 -3.4 75 75 Calm 30.21 1023 10 16.0934 0 0
9:15 am 09:15 Cloudy 33 0.8 25 -3.7 72 72 SW 5 7 30.21 1023 10 16.0934 0 0
9:35 am 09:35 Cloudy 35 1.4 25 -4.1 67 67 SSW 5 7 30.21 1023 10 16.0934 0 0
9:55 am 09:55 Cloudy 36 2.2 24 -4.2 63 63 SSW 5 7 30.2 1023 10 16.0934 0 0
10:15 am 10:15 Cloudy 38 3.2 23 -5.1 55 55 SSW 7 11 30.2 1023 10 16.0934 0 0
10:35 am 10:35 Cloudy 39 4 22 -5.8 49 49 S 10 17 30.18 1022 10 16.0934 0 0
10:55 am 10:55 Cloudy 40 4.7 22 -5.6 48 48 S 12 19 30.18 1022 10 16.0934 0 0
11:15 am 11:15 Cloudy 42 5.3 22 -5.6 46 46 SSW 9 15 30.18 1022 10 16.0934 0 0
11:35 am 11:35 Cloudy 43 5.9 22 -5.6 44 44 SSW 12 19 30.17 1022 10 16.0934 0 0
11:55 am 11:55 Cloudy 44 6.9 23 -5 43 43 SSW 10 17 30.17 1022 10 16.0934 0 0
12:15 pm 12:15 Cloudy 46 7.6 23 -4.8 41 41 SW 12 19 30.16 1021 10 16.0934 0 0
12:35 pm 12:35 Cloudy 47 8.4 24 -4.4 40 40 S 9 15 30.14 1021 10 16.0934 0 0
12:55 pm 12:55 Mostly Cloudy 49 9.6 25 -4.1 38 38 SSW 10 17 30.13 1020 10 16.0934 0 0
1:15 pm 13:15 Cloudy 50 9.8 25 -4.1 38 38 SSW 16 26 30.12 1020 10 16.0934 0 0
1:35 pm 13:35 Cloudy 50 10.2 25 -4.1 37 37 SSW 12 19 30.1 1019 10 16.0934 0 0
1:55 pm 13:55 Cloudy 50 10.1 25 -4 37 37 SSW 10 17 30.09 1019 10 16.0934 0 0
2:15 pm 14:15 Cloudy 50 10 25 -3.9 38 38 SSW 14 22 30.09 1019 10 16.0934 0 0
2:35 pm 14:35 Partly Cloudy 51 10.3 25 -3.9 37 37 SSW 16 26 30.08 1019 10 16.0934 0 0
2:55 pm 14:55 Partly Cloudy 51 10.3 26 -3.6 38 38 SSW 15 24 30.08 1019 10 16.0934 0 0
3:15 pm 15:15 Sunny 51 10.7 25 -3.7 36 36 SSW 16 26 30.08 1019 10 16.0934 0 0
3:35 pm 15:35 Mostly Cloudy 52 10.9 25 -3.9 35 35 SSW 15 24 30.08 1019 10 16.0934 0 0
3:55 pm 15:55 Mostly Cloudy 51 10.8 25 -3.8 36 36 S 13 20 30.08 1019 10 16.0934 0 0
4:15 pm 16:15 Mostly Cloudy 51 10.8 24 -4.2 35 35 SSW 12 19 30.07 1018 10 16.0934 0 0
4:35 pm 16:35 Partly Cloudy 52 11.2 24 -4.2 34 34 SSW 12 19 30.06 1018 10 16.0934 0 0
4:55 pm 16:55 Sunny 52 11.2 23 -4.8 33 33 S 14 22 30.06 1018 10 16.0934 0 0
5:15 pm 17:15 Sunny 52 11 23 -5 32 32 SSW 10 17 30.06 1018 10 16.0934 0 0
5:35 pm 17:35 Sunny 51 10.7 23 -4.8 34 34 SSW 9 15 30.06 1018 10 16.0934 0 0
5:55 pm 17:55 Sunny 50 10 23 -5.1 34 34 SSW 9 15 30.06 1018 10 16.0934 0 0
6:15 pm 18:15 Sunny 47 8.2 24 -4.4 41 41 SSW 6 9 30.06 1018 10 16.0934 0 0
6:35 pm 18:35 Clear 46 7.6 23 -4.9 41 41 SW 5 7 30.08 1018 10 16.0934 0 0
6:55 pm 18:55 Clear 42 5.3 24 -4.3 50 50 Calm 30.08 1019 10 16.0934 0 0
7:15 pm 19:15 Clear 38 3.2 27 -2.9 65 65 Calm 30.09 1019 10 16.0934 0 0
7:35 pm 19:35 Clear 38 3.2 27 -2.7 66 66 Calm 30.09 1019 10 16.0934 0 0
7:55 pm 19:55 Clear 36 2.1 29 -1.8 76 76 Calm 30.09 1019 10 16.0934 0 0
8:15 pm 20:15 Clear 33 0.6 28 -2.4 81 81 Calm 30.09 1019 10 16.0934 0 0
8:35 pm 20:35 Clear 33 0.4 26 -3.2 77 77 Calm 30.08 1019 10 16.0934 0 0
8:55 pm 20:55 Clear 33 0.5 28 -2.4 81 81 Calm 30.08 1019 10 16.0934 0 0
9:15 pm 21:15 Clear 33 0.4 27 -2.9 79 79 Calm 30.09 1019 10 16.0934 0 0
9:35 pm 21:35 Clear 31 -0.5 25 -4 77 77 Calm 30.1 1019 10 16.0934 0 0
9:55 pm 21:55 Clear 30 -0.9 25 -3.8 81 81 Calm 30.1 1019 10 16.0934 0 0
10:15 pm 22:15 Clear 31 -0.3 27 -2.6 85 85 Calm 30.1 1019 10 16.0934 0 0
10:35 pm 22:35 Clear 31 -0.5 28 -2.4 87 87 Calm 30.1 1019 10 16.0934 0 0
10:55 pm 22:55 Clear 31 -0.7 26 -3.3 83 83 Calm 30.09 1019 10 16.0934 0 0
11:15 pm 23:15 Clear 30 -1.1 27 -2.9 88 88 Calm 30.09 1019 10 16.0934 0 0
11:35 pm 23:35 Clear 29 -1.5 26 -3.5 86 86 Calm 30.09 1019 10 16.0934 0 0
11:55 pm 23:55 Clear 29 -1.5 26 -3.3 88 88 Calm 30.08 1019 10 16.0934 0 0

Powered by AerisWeather